Total_Precipitation_Accumulation
0.66 0.64 0.65 0.57 0.53 0.54 0.56 0.67 0.85 0.68 0.33 0.20 0.18 0.18 0.21 0.26 0.29 0.27 0.26 0.28 0.32 0.37 0.43 0.46 0.51 0.65 0.95 1.55 2.51 3.50 3.67 2.95 2.09 1.57 1.52 1.88 2.25 2.65
0.71 0.72 0.71 0.70 0.67 0.61 0.60 0.62 0.71 0.79 0.54 0.22 0.19 0.20 0.25 0.29 0.34 0.28 0.29 0.33 0.31 0.33 0.37 0.42 0.46 0.58 0.76 1.05 1.63 2.53 3.39 3.59 3.04 2.32 1.94 1.98 2.23 2.50
0.77 0.80 0.78 0.78 0.82 0.78 0.71 0.66 0.64 0.68 0.66 0.28 0.18 0.18 0.26 0.32 0.33 0.31 0.32 0.31 0.27 0.29 0.33 0.38 0.44 0.52 0.66 0.87 1.19 1.77 2.60 3.31 3.50 3.11 2.66 2.37 2.32 2.37
0.84 0.84 0.83 0.83 0.86 0.86 0.85 0.76 0.65 0.57 0.60 0.44 0.24 0.21 0.24 0.33 0.38 0.37 0.34 0.31 0.28 0.30 0.33 0.39 0.44 0.50 0.61 0.77 0.98 1.31 1.92 2.58 3.14 3.28 3.03 2.65 2.44 2.49
1.08 1.05 0.96 0.91 0.92 0.88 0.90 0.85 0.74 0.63 0.57 0.55 0.37 0.26 0.27 0.34 0.47 0.49 0.41 0.36 0.31 0.32 0.34 0.38 0.41 0.44 0.52 0.63 0.81 1.04 1.33 1.76 2.26 2.87 3.11 2.91 2.59 2.49
1.16 1.18 1.14 1.13 1.06 0.99 0.97 0.93 0.88 0.83 0.74 0.71 0.58 0.42 0.36 0.39 0.55 0.63 0.55 0.45 0.39 0.35 0.37 0.37 0.39 0.42 0.43 0.44 0.50 0.66 0.92 1.31 1.79 2.33 2.85 2.98 2.70 2.50
0.99 1.00 1.07 1.19 1.23 1.27 1.29 1.19 1.15 1.21 1.12 1.01 0.84 0.67 0.55 0.57 0.67 0.71 0.78 0.66 0.54 0.46 0.44 0.38 0.35 0.31 0.30 0.33 0.39 0.49 0.67 0.91 1.27 1.76 2.28 2.68 2.73 2.60
0.83 0.79 0.81 0.98 1.06 1.16 1.27 1.27 1.32 1.47 1.51 1.39 1.14 0.93 0.68 0.62 0.69 0.85 0.98 1.02 0.86 0.56 0.54 0.51 0.43 0.39 0.31 0.27 0.31 0.39 0.53 0.75 0.98 1.31 1.72 2.17 2.47 2.63
0.64 0.64 0.66 0.74 0.85 0.84 0.95 1.03 1.09 1.25 1.45 1.52 1.45 1.09 0.81 0.66 0.80 0.97 1.01 1.08 0.95 0.75 0.80 0.86 0.68 0.56 0.43 0.38 0.41 0.40 0.48 0.61 0.78 0.99 1.30 1.72 2.12 2.41
0.53 0.52 0.51 0.56 0.69 0.81 0.89 0.89 0.85 0.95 1.22 1.42 1.54 1.33 1.07 0.93 1.06 1.31 1.41 1.39 1.19 1.01 1.01 1.18 0.97 0.78 0.65 0.54 0.48 0.42 0.45 0.51 0.63 0.78 1.02 1.36 1.75 2.07
0.51 0.51 0.46 0.44 0.63 0.83 0.83 0.76 0.67 0.71 0.87 1.14 1.33 1.37 1.35 1.39 1.48 1.75 1.90 1.84 1.67 1.34 1.17 1.27 1.25 1.12 0.97 0.84 0.67 0.53 0.47 0.48 0.53 0.67 0.82 1.05 1.40 1.82
0.52 0.50 0.55 0.57 0.70 0.76 0.71 0.73 0.75 0.66 0.63 0.71 0.80 0.88 0.97 1.06 1.32 1.57 1.73 1.81 1.79 1.75 1.38 1.28 1.44 1.50 1.59 1.24 0.89 0.59 0.49 0.52 0.55 0.61 0.72 0.86 1.14 1.44
0.58 0.54 0.51 0.60 0.64 0.67 0.69 0.68 0.78 0.72 0.67 0.77 0.78 0.74 0.78 0.90 1.05 1.29 1.54 1.72 1.84 1.80 1.43 1.42 1.64 1.55 1.63 1.52 1.19 0.83 0.54 0.49 0.53 0.62 0.71 0.79 0.93 1.09
0.58 0.50 0.50 0.60 0.64 0.69 0.67 0.71 0.76 0.75 0.72 0.72 0.67 0.65 0.70 0.80 0.92 1.09 1.30 1.47 1.55 1.58 1.39 1.40 1.74 1.59 1.48 1.36 1.25 1.11 0.81 0.59 0.50 0.52 0.60 0.83 0.97 1.02
0.73 0.73 0.66 0.68 0.68 0.62 0.64 0.67 0.66 0.63 0.69 0.70 0.61 0.54 0.58 0.71 0.79 0.91 1.05 1.24 1.35 1.40 1.39 1.35 1.51 1.58 1.55 1.41 1.13 1.02 0.98 0.86 0.63 0.55 0.59 0.67 0.76 0.86
0.84 0.85 0.82 0.77 0.68 0.61 0.59 0.55 0.51 0.56 0.61 0.61 0.54 0.47 0.49 0.60 0.71 0.83 0.99 1.14 1.32 1.35 1.35 1.40 1.50 1.70 1.70 1.36 1.16 1.00 0.85 0.94 0.80 0.61 0.61 0.67 0.67 0.63
0.94 0.89 0.80 0.76 0.74 0.64 0.55 0.49 0.48 0.53 0.54 0.49 0.49 0.49 0.51 0.57 0.64 0.74 0.95 1.11 1.26 1.26 1.34 1.52 1.62 1.69 1.76 1.69 1.53 1.13 0.84 0.76 0.73 0.63 0.65 0.78 0.84 0.75
0.96 0.87 0.71 0.62 0.61 0.58 0.55 0.52 0.48 0.46 0.43 0.44 0.48 0.51 0.54 0.59 0.65 0.71 0.87 1.06 1.15 1.17 1.24 1.43 1.64 1.80 1.98 2.05 1.80 1.33 0.97 0.84 0.80 0.73 0.68 0.78 0.94 0.88
0.75 0.65 0.54 0.49 0.47 0.48 0.49 0.47 0.44 0.41 0.41 0.45 0.46 0.46 0.50 0.55 0.62 0.68 0.77 0.90 1.02 1.10 1.18 1.30 1.50 1.71 1.84 1.93 1.99 1.61 1.21 1.01 0.97 0.98 0.87 0.77 0.82 0.87
0.59 0.54 0.51 0.47 0.46 0.47 0.47 0.46 0.44 0.42 0.44 0.44 0.43 0.42 0.45 0.52 0.57 0.61 0.66 0.79 0.92 1.02 1.11 1.19 1.35 1.54 1.62 1.57 1.66 1.71 1.57 1.24 1.09 1.10 1.03 0.93 0.94 1.05
0.56 0.51 0.50 0.51 0.50 0.47 0.45 0.45 0.46 0.44 0.41 0.42 0.41 0.40 0.42 0.49 0.53 0.54 0.60 0.71 0.84 0.94 1.00 1.06 1.19 1.35 1.52 1.52 1.45 1.43 1.59 1.60 1.28 1.10 1.05 1.12 1.23 1.25
0.52 0.51 0.50 0.52 0.53 0.51 0.48 0.48 0.48 0.45 0.42 0.41 0.38 0.37 0.38 0.44 0.48 0.50 0.56 0.63 0.71 0.80 0.89 0.98 1.11 1.34 1.56 1.61 1.46 1.31 1.44 1.66 1.68 1.41 1.19 1.14 1.27 1.34
0.54 0.54 0.53 0.53 0.53 0.51 0.50 0.49 0.48 0.44 0.40 0.39 0.37 0.35 0.36 0.39 0.41 0.45 0.50 0.53 0.60 0.70 0.83 0.98 1.11 1.29 1.47 1.53 1.51 1.35 1.28 1.42 1.56 1.58 1.56 1.32 1.01 0.85